Home   Weather   Hollabrunn   Past weeks

Flag for Austria Past Weather in Hollabrunn, Lower Austria, Austria — Yesterday and Last 2 Weeks

Now
46 °F

Cool.


Feels Like: 45 °F
Forecast: 44 / 61 °F
Wind: 3 mph from East

Location: Retz

Current Time: May 1, 2017 at 2:40:15 am

Latest Report: May 1, 2017 at 1:00 am


Visibility: N/A

Pressure: 29.98 "Hg

Humidity: 75%

Dew Point: 38 °F

Location of HollabrunnLocation

Past Weather in Hollabrunn — Graph

°F

Hollabrunn Temperature Yesterday

Maximum temperature yesterday: 57 °F (at 4:00 pm)
Minimum temperature yesterday: 42 °F (at 5:00 am)
Average temperature yesterday: 49 °F

High & Low Weather Summary for the Past Weeks

 TemperatureHumidityPressure
High64 °F (Apr 25, 6:00 pm)98% (Apr 27, 9:00 pm)30.51 "Hg (Apr 27, 9:00 pm)
Low34 °F (Apr 20, 6:00 am)37% (Apr 24, 6:00 pm)29.67 "Hg (Apr 25, 7:00 pm)
Average44 °F72%30.04 "Hg
* Reported Apr 16 1:00 am — May 1 1:00 am, Hollabrunn, Weather by CustomWeather, © 2017

Note: Actual official high and low records may vary slightly from our data, if they occured in-between our weather recording intervals... More about our weather records

Advertising

Hollabrunn Weather History for the Previous 24 Hours

Scroll right to see more
 ConditionsComfort  
Time TempWeatherWind HumidityBarometerVisibility
1:00 am
Mon, May 1
46 °FCool.3 mph75%29.98 "HgN/A
12:00 am47 °FCool.5 mph72%29.98 "HgN/A
11:00 pm
Sun, Apr 30
48 °FCool.3 mph69%29.98 "HgN/A
10:00 pm49 °FCool.3 mph64%30.00 "HgN/A
9:00 pm51 °FCool.3 mph61%30.00 "HgN/A
8:00 pm54 °FPassing clouds.5 mph54%29.98 "Hg16 mi
7:00 pm55 °FRefreshingly cool.3 mph47%29.99 "HgN/A
6:00 pm56 °FRefreshingly cool.5 mph46%30.00 "HgN/A
5:00 pm56 °FRefreshingly cool.5 mph48%30.01 "HgN/A
4:00 pm57 °FRefreshingly cool.6 mph47%30.02 "HgN/A
3:00 pm56 °FRefreshingly cool.7 mph49%30.03 "HgN/A
2:00 pm55 °FCool.6 mph55%30.06 "HgN/A
1:00 pm55 °FCool.5 mph54%30.07 "HgN/A
12:00 pm54 °FCool.5 mph62%30.09 "HgN/A
11:00 am52 °FCool.6 mph70%30.10 "HgN/A
10:00 am50 °FCool.5 mph74%30.11 "HgN/A
9:00 am48 °FCool.6 mph77%30.11 "HgN/A
8:00 am45 °FSunny.6 mph82%30.12 "Hg5 mi
7:00 am43 °FSunny.6 mph85%30.12 "Hg3 mi
6:00 am42 °FQuite cool.5 mph82%30.11 "HgN/A
5:00 am42 °FQuite cool.3 mph83%30.11 "HgN/A
4:00 am43 °FQuite cool.3 mph78%30.10 "HgN/A
3:00 am43 °FQuite cool.3 mph77%30.10 "HgN/A
2:00 am42 °FQuite cool.1 mph78%30.09 "HgN/A
Weather by CustomWeather, © 2017

See weather overviewHow to use our weather pages